• In Portugal
  • List of Countries
  • For 7 days
  • Water Temperature
  • Satellite Maps
  • Weather Map
  • Weather Widgets
  • user-avatar
    Login

    Hourly Weather Asadabad

    Today, 23 September, Saturday

    Time Temperature Precipitation Wind Pressure Humidity
    00:00 +21°C° 0 mm 2 mps 656 mmHg 36%
    01:00 +20°C° 0 mm 2 mps 656 mmHg 36%
    02:00 +20°C° 0 mm 2 mps 656 mmHg 36%
    03:00 +20°C° 0 mm 2 mps 656 mmHg 37%
    04:00 +19°C° 0 mm 2 mps 656 mmHg 37%
    05:00 +19°C° 0 mm 2 mps 656 mmHg 38%
    06:00 +21°C° 0 mm 2 mps 657 mmHg 35%
    07:00 +23°C° 0 mm 2 mps 658 mmHg 32%
    08:00 +25°C° 0 mm 1 mps 658 mmHg 29%
    09:00 +26°C° 0 mm 2 mps 659 mmHg 27%
    10:00 +27°C° 0 mm 2 mps 659 mmHg 24%
    11:00 +29°C° 0 mm 2 mps 659 mmHg 22%
    12:00 +29°C° 0 mm 2 mps 659 mmHg 21%
    13:00 +30°C° 0 mm 2 mps 659 mmHg 20%
    14:00 +30°C° 0 mm 3 mps 659 mmHg 19%
    15:00 +30°C° 0 mm 2 mps 658 mmHg 20%
    16:00 +30°C° 0 mm 2 mps 658 mmHg 21%
    17:00 +29°C° 0 mm 2 mps 658 mmHg 21%
    18:00 +27°C° 0 mm 1 mps 658 mmHg 25%
    19:00 +25°C° 0 mm 1 mps 658 mmHg 29%
    20:00 +21°C° 0 mm 0 mps 657 mmHg 34%
    21:00 +23°C° 0 mm 1 mps 657 mmHg 34%
    22:00 +22°C° 0 mm 1 mps 657 mmHg 34%
    23:00 +22°C° 0 mm 1 mps 657 mmHg 34%

    Tomorrow, 24 September, Sunday

    Time Temperature Precipitation Wind Pressure Humidity
    00:00 +21°C° 0 mm 1 mps 657 mmHg 34%
    01:00 +21°C° 0 mm 1 mps 657 mmHg 35%
    02:00 +21°C° 0 mm 1 mps 657 mmHg 35%
    03:00 +20°C° 0 mm 1 mps 657 mmHg 36%
    04:00 +19°C° 0 mm 2 mps 656 mmHg 36%
    05:00 +19°C° 0 mm 2 mps 656 mmHg 36%
    06:00 +21°C° 0 mm 1 mps 657 mmHg 33%
    07:00 +23°C° 0 mm 1 mps 658 mmHg 30%
    08:00 +25°C° 0 mm 1 mps 659 mmHg 27%
    09:00 +26°C° 0 mm 1 mps 659 mmHg 25%
    10:00 +27°C° 0 mm 2 mps 659 mmHg 24%
    11:00 +28°C° 0 mm 2 mps 659 mmHg 22%
    12:00 +29°C° 0 mm 2 mps 659 mmHg 21%
    13:00 +29°C° 0 mm 3 mps 659 mmHg 21%
    14:00 +30°C° 0 mm 3 mps 659 mmHg 20%
    15:00 +29°C° 0 mm 3 mps 658 mmHg 21%
    16:00 +29°C° 0 mm 2 mps 658 mmHg 22%
    17:00 +29°C° 0 mm 2 mps 658 mmHg 23%
    18:00 +27°C° 0 mm 2 mps 658 mmHg 28%
    19:00 +25°C° 0 mm 1 mps 658 mmHg 32%
    20:00 +20°C° 0 mm 0 mps 658 mmHg 37%
    21:00 +20°C° 0 mm 0 mps 658 mmHg 37%
    22:00 +22°C° 0 mm 1 mps 657 mmHg 37%
    23:00 +21°C° 0 mm 1 mps 657 mmHg 36%

    Day after tomorrow, 25 September, Monday

    Time Temperature Precipitation Wind Pressure Humidity
    00:00 +21°C° 0 mm 1 mps 657 mmHg 36%
    01:00 +21°C° 0 mm 1 mps 657 mmHg 36%
    02:00 +19°C° 0 mm 2 mps 657 mmHg 36%
    03:00 +19°C° 0 mm 2 mps 657 mmHg 35%
    04:00 +19°C° 0 mm 2 mps 656 mmHg 34%
    05:00 +18°C° 0 mm 2 mps 656 mmHg 33%
    06:00 +20°C° 0 mm 2 mps 657 mmHg 30%
    07:00 +23°C° 0 mm 2 mps 658 mmHg 27%
    08:00 +24°C° 0 mm 2 mps 658 mmHg 24%
    09:00 +26°C° 0 mm 2 mps 659 mmHg 22%
    10:00 +27°C° 0 mm 2 mps 659 mmHg 20%
    11:00 +28°C° 0 mm 2 mps 659 mmHg 18%
    12:00 +29°C° 0 mm 2 mps 659 mmHg 17%
    13:00 +29°C° 0 mm 3 mps 658 mmHg 17%
    14:00 +30°C° 0 mm 3 mps 658 mmHg 17%
    15:00 +30°C° 0 mm 2 mps 658 mmHg 17%
    16:00 +29°C° 0 mm 2 mps 658 mmHg 18%
    17:00 +29°C° 0 mm 2 mps 658 mmHg 18%
    18:00 +27°C° 0 mm 1 mps 658 mmHg 22%
    19:00 +25°C° 0 mm 1 mps 657 mmHg 25%
    20:00 +22°C° 0 mm 1 mps 657 mmHg 29%
    21:00 +22°C° 0 mm 1 mps 657 mmHg 28%
    22:00 +22°C° 0 mm 1 mps 657 mmHg 28%
    23:00 +20°C° 0 mm 2 mps 657 mmHg 27%

    26 September, Tuesday

    Time Temperature Precipitation Wind Pressure Humidity
    00:00 +20°C° 0 mm 2 mps 657 mmHg 26%
    01:00 +20°C° 0 mm 2 mps 657 mmHg 26%
    02:00 +19°C° 0 mm 2 mps 656 mmHg 25%
    03:00 +19°C° 0 mm 2 mps 656 mmHg 24%
    04:00 +19°C° 0 mm 2 mps 656 mmHg 24%
    05:00 +18°C° 0 mm 2 mps 656 mmHg 23%
    06:00 +20°C° 0 mm 2 mps 657 mmHg 22%
    07:00 +23°C° 0 mm 2 mps 658 mmHg 20%
    08:00 +25°C° 0 mm 2 mps 658 mmHg 18%
    09:00 +26°C° 0 mm 2 mps 659 mmHg 17%
    10:00 +27°C° 0 mm 2 mps 659 mmHg 15%
    11:00 +29°C° 0 mm 2 mps 659 mmHg 14%
    12:00 +29°C° 0 mm 2 mps 659 mmHg 14%
    13:00 +30°C° 0 mm 2 mps 659 mmHg 14%
    14:00 +30°C° 0 mm 3 mps 658 mmHg 14%
    15:00 +30°C° 0 mm 2 mps 658 mmHg 15%
    16:00 +30°C° 0 mm 2 mps 658 mmHg 16%
    17:00 +29°C° 0 mm 2 mps 658 mmHg 16%
    18:00 +27°C° 0 mm 1 mps 658 mmHg 20%
    19:00 +25°C° 0 mm 1 mps 658 mmHg 24%
    20:00 +22°C° 0 mm 1 mps 658 mmHg 28%
    21:00 +22°C° 0 mm 1 mps 658 mmHg 28%
    22:00 +22°C° 0 mm 1 mps 658 mmHg 28%
    23:00 +21°C° 0 mm 1 mps 658 mmHg 28%

    27 September, Wednesday

    Time Temperature Precipitation Wind Pressure Humidity
    00:00 +21°C° 0 mm 1 mps 657 mmHg 28%
    01:00 +20°C° 0 mm 1 mps 657 mmHg 29%
    02:00 +19°C° 0 mm 2 mps 657 mmHg 30%
    03:00 +19°C° 0 mm 2 mps 657 mmHg 30%
    04:00 +19°C° 0 mm 2 mps 657 mmHg 30%
    05:00 +18°C° 0 mm 2 mps 657 mmHg 29%
    06:00 +20°C° 0 mm 2 mps 658 mmHg 27%
    07:00 +23°C° 0 mm 2 mps 658 mmHg 24%
    08:00 +25°C° 0 mm 2 mps 659 mmHg 21%
    09:00 +26°C° 0 mm 2 mps 660 mmHg 19%
    10:00 +28°C° 0 mm 2 mps 660 mmHg 17%
    11:00 +29°C° 0 mm 2 mps 660 mmHg 14%
    12:00 +30°C° 0 mm 2 mps 660 mmHg 14%
    13:00 +30°C° 0 mm 2 mps 659 mmHg 14%
    14:00 +31°C° 0 mm 3 mps 659 mmHg 13%
    15:00 +30°C° 0 mm 2 mps 659 mmHg 14%
    16:00 +30°C° 0 mm 2 mps 659 mmHg 15%
    17:00 +30°C° 0 mm 2 mps 659 mmHg 15%
    18:00 +27°C° 0 mm 1 mps 659 mmHg 18%
    19:00 +25°C° 0 mm 1 mps 658 mmHg 21%
    20:00 +23°C° 0 mm 1 mps 658 mmHg 24%
    21:00 +22°C° 0 mm 1 mps 658 mmHg 24%
    22:00 +22°C° 0 mm 1 mps 658 mmHg 24%
    23:00 +21°C° 0 mm 2 mps 658 mmHg 24%

    28 September, Thursday

    Time Temperature Precipitation Wind Pressure Humidity
    00:00 +21°C° 0 mm 2 mps 658 mmHg 24%
    01:00 +20°C° 0 mm 2 mps 657 mmHg 24%
    02:00 +20°C° 0 mm 2 mps 657 mmHg 24%
    03:00 +20°C° 0 mm 3 mps 657 mmHg 24%
    04:00 +19°C° 0 mm 3 mps 657 mmHg 24%
    05:00 +19°C° 0 mm 3 mps 657 mmHg 24%
    06:00 +21°C° 0 mm 2 mps 658 mmHg 23%
    07:00 +23°C° 0 mm 2 mps 658 mmHg 21%
    08:00 +25°C° 0 mm 2 mps 659 mmHg 20%
    09:00 +26°C° 0 mm 2 mps 659 mmHg 18%
    10:00 +28°C° 0 mm 2 mps 659 mmHg 15%
    11:00 +29°C° 0 mm 2 mps 660 mmHg 13%
    12:00 +30°C° 0 mm 2 mps 659 mmHg 13%
    13:00 +30°C° 0 mm 2 mps 659 mmHg 13%
    14:00 +31°C° 0 mm 3 mps 659 mmHg 13%
    15:00 +31°C° 0 mm 2 mps 658 mmHg 14%
    16:00 +30°C° 0 mm 2 mps 658 mmHg 14%
    17:00 +30°C° 0 mm 2 mps 658 mmHg 15%
    18:00 +28°C° 0 mm 1 mps 658 mmHg 18%
    19:00 +25°C° 0 mm 1 mps 658 mmHg 21%
    20:00 +23°C° 0 mm 1 mps 658 mmHg 24%
    21:00 +23°C° 0 mm 1 mps 658 mmHg 23%
    22:00 +21°C° 0 mm 2 mps 658 mmHg 23%
    23:00 +21°C° 0 mm 2 mps 658 mmHg 22%
    Show more